96P/Machholz 1 (2012)

Japanese version
Home page
Updated on August 18, 2013

---------------------------------------------------------------------

* Profile

* Pictures

* Orbital Elements

Epoch 2012 July 12.0 TT = JDT 2456120.5
T 2012 July 14.78519 TT                                 MPC
q   0.1237912            (2000.0)            P               Q
n   0.18661467     Peri.   14.75601     -0.20637678     -0.48750525
a   3.0327657      Node    94.32427     +0.78923890     -0.59544197
e   0.9591821      Incl.   58.29892     +0.57836889     +0.63858241
P   5.28
From 857 observations 1997 Apr. 15-2012 Aug. 27, mean residual 0".6.
     Nongravitational parameters A1 = -0.01, A2 = -0.0001.

  96P/Machholz B
Epoch 2012 July 12.0 TT = JDT 2456120.5
T 2012 July 14.57719 TT                                 MPC
q   0.1237912            (2000.0)            P               Q
n   0.18661467     Peri.   14.75601     -0.20637678     -0.48750525
a   3.0327657      Node    94.32427     +0.78923890     -0.59544197
e   0.9591821      Incl.   58.29892     +0.57836889     +0.63858241
P   5.28
From 19 observations 2012 July 14.  Nongravitational parameters
     A1 = -0.01, A2 = -0.0001.

* Finding Charts

* Magnitudes Graph

        m1 = 12.7 + 5 log d + 12.0 log r

---------------------------------------------------------------------

The orbital elements are published on M.P.E.C. 2012-Q70.
The orbital elements of component B are published on M.P.E.C. 2013-Q08.
The charts are made with StellaNavigator Ver.8 (AstroArts).
The magnitudes graphs are made with Comet for Windows.

---------------------------------------------------------------------

Copyright(C) Seiichi Yoshida (comet@aerith.net). All rights reserved.